Location: Treviso
(45.6669°N, 12.2430°E)
Time: 08:22:43
(UTC+01:00)

ISS - Pass Details

Date: 10 November 2018
Orbit: 401 x 408 km, 51.6° (Epoch: 20 November)

Event Time Altitude Azimuth Distance (km) Brightness Sun altitude
Exits shadow 05:58:24 18° 299° (WNW) 1,065 -2.3 -11.6°
Maximum altitude 06:00:41 86° 24° (NNE) 411 -3.9 -11.2°
Drops below altitude 10° 06:03:58 10° 118° (ESE) 1,462 0.4 -10.6°
Sets 06:06:03 0° 119° (ESE) 2,320 1.8 -10.3°
